Location: Naloco
(16.5478°S, 37.1017°E)
Time: 02:52:20
(UTC+00:00)

Cosmos 292 Rocket - Pass Details

Date: 13 August 2020
Orbit: 674 x 694 km, 74.1° (Epoch: 23 September)

Event Time Altitude Azimuth Distance (km) Brightness Sun altitude
Rises 16:45:47 0° 356° (N) 3,015 7.3 -20.3°
Reaches altitude 10° 16:48:06 10° 0° (N) 2,110 6.4 -20.9°
Maximum altitude 16:52:45 56° 78° (ENE) 813 3.8 -22.0°
Enters shadow 16:52:48 56° 81° (E) 813 3.7 -22.0°
